Volver al catálogo

STARLINK-31284

ActivoComunicacionesVLEO
NORAD 59246·PAYLOAD·🇺🇸 United States

Lanzado Mar 16, 2024 desde Cape Canaveral Space Force Station

Loading…

Próximos Pases (próximas 24 horas)

TLE

ActualizadoSource: CelesTrak SupGP

Época: Sep 14, 2026, 20:56 UTC

1 59246C 24049R   26257.87270833 -.00028788  00000+0 -10425-2 0  2570
2 59246  43.0013 154.9999 0001320 262.9649 351.6499 15.27597677    13

Sigue STARLINK-31284 en tiempo real con AllMySat

Download on the App Store